Location: Pel�-Koumbol�
(14.9505°N, 3.0798°W)
Time: 14:43:52
(UTC+00:00)

CZ-4B R/B - Pass Details

Date: 17 February 2020
Orbit: 808 x 882 km, 99.1° (Epoch: 05 April)

Event Time Altitude Azimuth Distance (km) Brightness Sun altitude
Rises 05:16:04 0° 23° (NNE) 3,322 6.5 -19.9°
Reaches altitude 10° 05:18:30 10° 29° (NNE) 2,388 5.8 -19.3°
Maximum altitude 05:23:31 45° 102° (ESE) 1,083 4.3 -18.1°
Drops below altitude 10° 05:28:32 10° 174° (S) 2,390 5.7 -16.9°
Sets 05:30:58 0° 180° (S) 3,327 6.4 -16.3°
